Hagerstown, MD

12:43 PM EST on February 27, 2017 (GMT -0500)
Hagerstown Regional-Henson

Weather History for KHGR - June, 2013

Change the Weather History Date:

Sunday, June 16, 2013

  Actual Average Record
Temperature  
Mean Temperature 71 °F 72 °F  
Max Temperature 79 °F 82 °F 89 °F (2014)
Min Temperature 63 °F 62 °F 53 °F (2007)
Degree Days  
Heating Degree Days 0 0  
Month to date heating degree days 3 17  
Since 1 June heating degree days 3 17  
Since 1 July heating degree days 4930 5184  
Cooling Degree Days 6 7  
Month to date cooling degree days 95 87  
Year to date cooling degree days 212 163  
Since 1 June cooling degree days 95 87  
Growing Degree Days 22 (Base 50)    
Moisture  
Dew Point 59 °F    
Average Humidity 65    
Maximum Humidity 73    
Minimum Humidity 57    
Precipitation  
Precipitation 0.02 in 0.13 in 0.75 in (2016)
Month to date precipitation 2.75 2.49  
Year to date precipitation 12.61 18.69  
Sea Level Pressure  
Sea Level Pressure 29.98 in    
Wind  
Wind Speed 6 mph (SW)    
Max Wind Speed 16 mph    
Max Gust Speed 22 mph    
Visibility 10 miles    
Events Rain    
T = Trace of Precipitation, MM = Missing Value Source: NWS Daily Summary

Daily Weather History Graph

Daily Weather History Graph

Search for Another Location

Airport or City:

Trip Planner

Search our weather history database for the weather conditions in past years. The results will help you decide how hot, cold, wet, or windy it might be!

Date:

Astronomy

Jun. 16, 2013 Rise Set
Actual Time 5:42 AM EDT 8:41 PM EDT
Civil Twilight 5:09 AM EDT 9:13 PM EDT
Nautical Twilight 4:28 AM EDT 9:54 PM EDT
Astronomical Twilight 3:40 AM EDT 10:43 PM EDT
Moon 1:15 PM EDT (6/16) 12:45 AM EDT (6/16)
Length of Visible Light 16h 03m
Length of Day
14h 58m
Waxing Crescent, 49% of the Moon is Illuminated
Jun 16
Waxing Crescent
Jun 16
First Quarter
Jun 23
Full
Jun 30
Last Quarter
Jul 8
New

Hourly Weather History & Observations

Time (EDT) Temp. Dew Point Humidity Pressure Visibility Wind Dir Wind Speed Gust Speed Precip Events Conditions
12:53 AM 66.9 °F 51.1 °F 57% 30.06 in 10.0 mi Calm Calm - N/A   Clear
1:53 AM 66.0 °F 52.0 °F 60% 30.05 in 10.0 mi ENE 3.5 mph - N/A   Clear
2:53 AM 64.0 °F 51.1 °F 63% 30.05 in 10.0 mi East 3.5 mph - N/A   Scattered Clouds
3:53 AM 64.0 °F 51.1 °F 63% 30.03 in 10.0 mi ENE 3.5 mph - N/A   Mostly Cloudy
4:53 AM 64.9 °F 51.1 °F 61% 30.02 in 10.0 mi Calm Calm - N/A   Overcast
5:53 AM 64.0 °F 53.1 °F 67% 30.03 in 10.0 mi Calm Calm - 0.00 in Rain Light Rain
6:53 AM 64.0 °F 55.9 °F 75% 30.03 in 10.0 mi SSE 4.6 mph - 0.00 in   Overcast
7:53 AM 66.0 °F 55.9 °F 70% 30.02 in 10.0 mi SSE 5.8 mph - N/A   Overcast
8:53 AM 66.9 °F 57.0 °F 70% 30.01 in 10.0 mi SSE 5.8 mph - N/A   Mostly Cloudy
9:53 AM 68.0 °F 57.9 °F 70% 30.00 in 10.0 mi South 5.8 mph - N/A   Overcast
10:53 AM 73.0 °F 57.9 °F 59% 29.97 in 10.0 mi SSW 6.9 mph - N/A   Mostly Cloudy
11:53 AM 75.9 °F 61.0 °F 60% 29.94 in 10.0 mi South 11.5 mph - N/A   Clear
12:53 PM 77.0 °F 62.1 °F 60% 29.93 in 10.0 mi SW 11.5 mph 19.6 mph N/A   Clear
1:53 PM 79.0 °F 63.0 °F 58% 29.92 in 10.0 mi WSW 12.7 mph 19.6 mph N/A   Clear
2:53 PM 78.1 °F 63.0 °F 60% 29.92 in 10.0 mi WSW 6.9 mph - N/A   Mostly Cloudy
3:53 PM 78.1 °F 64.0 °F 62% 29.91 in 10.0 mi West 8.1 mph - N/A   Mostly Cloudy
4:53 PM 75.0 °F 69.1 °F 82% 29.94 in 10.0 mi West 8.1 mph - 0.02 in   Mostly Cloudy
5:53 PM 78.1 °F 64.9 °F 64% 29.92 in 10.0 mi WSW 6.9 mph - N/A   Partly Cloudy
6:53 PM 78.1 °F 64.0 °F 62% 29.93 in 10.0 mi West 8.1 mph - N/A   Scattered Clouds
7:53 PM 77.0 °F 64.0 °F 64% 29.93 in 10.0 mi WSW 3.5 mph - N/A   Scattered Clouds
8:53 PM 75.0 °F 63.0 °F 66% 29.94 in 10.0 mi West 8.1 mph - N/A   Clear
9:53 PM 73.9 °F 62.1 °F 66% 29.96 in 10.0 mi WSW 5.8 mph - N/A   Clear
10:53 PM 73.0 °F 62.1 °F 68% 29.96 in 10.0 mi WSW 5.8 mph - N/A   Clear
11:53 PM 71.1 °F 62.1 °F 73% 29.96 in 10.0 mi Calm Calm - N/A   Clear